[[{"header":{"parameterUnit":"m.s-1","parameterCategory":1,"la1":30.2991,"la2":30.254,"lo1":-89.0895,"lo2":-89.0444,"dy":0.0017,"dx":0.0017,"nx":28,"ny":28,"refTime":"2025-11-25T09:00:00:Z","depth":0,"parameterNumber":2,"parameterNumberName":"U-component_of_WINDS"},"data":[0,0,0,0,0,0,0,0,0,0,0,0,0,0,0,0,0,0,0,0,0,0,0,0,0,0,0,0,0,0,0,0,0,0,0,0,0,0,0,0,0,0,0,0,0,0,0,0,0,0,0,0,0,0,0,0,0,0,-3.6331,-3.6332,0,-3.6463,-3.6465,-3.6466,-3.6503,-3.6502,-3.6501,-3.65,-3.6637,-3.6641,-3.6646,0,0,0,0,0,0,0,0,0,0,0,0,0,-3.6111,-3.6114,-3.633,-3.6332,-3.6334,-3.6463,-3.6465,-3.6467,-3.6503,-3.6502,-3.6501,-3.65,-3.6636,-3.6641,-3.6646,0,0,0,0,0,0,0,0,0,0,0,0,0,-3.6221,-3.6116,-3.633,-3.6367,-3.6372,-3.6463,-3.6465,-3.6467,-3.6503,-3.6502,-3.6501,-3.65,-3.6634,-3.664,-3.6647,-3.671,0,0,-3.6667,-3.667,0,0,0,0,0,0,0,0,-3.6215,-3.6229,-3.636,-3.6365,-3.637,-3.6465,-3.6438,-3.6549,-3.6503,-3.6453,-3.65,-3.6499,-3.6581,-3.6592,-3.6619,-3.6717,-3.6722,-3.6667,-3.6671,-3.6674,-3.6676,0,0,0,0,0,0,0,-3.6207,-3.6223,-3.6383,-3.6362,-3.6368,-3.6378,-3.6393,-3.6459,-3.6522,-3.6458,-3.6461,-3.6476,-3.6584,-3.6613,-3.6623,-3.6724,-3.6667,-3.6673,-3.6677,-3.668,-3.6881,-3.6883,0,0,0,0,0,0,-3.6193,-3.6217,-3.6379,-3.6387,-3.6288,-3.6383,-3.6399,-3.6436,-3.6521,-3.6533,-3.6477,-3.6477,-3.6602,-3.6615,-3.6628,-3.6707,-3.6674,-3.668,-3.6684,-3.688,-3.6882,-3.6883,0,0,0,0,0,0,-3.6188,-3.6207,-3.6373,-3.6303,-3.6325,-3.6388,-3.6429,-3.6439,-3.6468,-3.6536,-3.6547,-3.6495,-3.6602,-3.6618,-3.669,-3.6712,-3.6683,-3.6689,-3.6878,-3.6881,-3.6883,-3.6866,0,0,0,0,0,0,-3.6181,-3.6205,-3.6229,-3.6303,-3.6328,-3.6432,-3.6431,-3.6443,-3.648,-3.6481,-3.6556,-3.6567,-3.6602,-3.668,-3.6696,-3.6721,-3.6694,-3.6876,-3.6879,-3.6882,-3.6865,-3.6868,-3.687,0,0,0,0,0,-3.6173,-3.6219,-3.623,-3.6249,-3.636,-3.6433,-3.6448,-3.6487,-3.6481,-3.6506,-3.655,-3.6565,-3.6708,-3.6686,-3.6705,-3.6732,-3.6875,-3.6878,-3.6882,-3.6864,-3.6867,-3.687,0,0,0,0,0,0,-3.6145,-3.6229,-3.6242,-3.6313,-3.6366,-3.6439,-3.6472,-3.6489,-3.6545,-3.6544,-3.6591,-3.6608,-3.6675,-3.6712,-3.6686,-3.6799,-3.6792,-3.6799,-3.6772,-3.6776,-3.6778,-3.6767,-3.67,0,0,0,0,0,-3.6148,-3.62,-3.6271,-3.6327,-3.6352,-3.6408,-3.6441,-3.6467,-3.6524,-3.6546,-3.6595,-3.665,-3.6707,-3.6744,-3.6801,-3.6872,-3.6888,-3.69,-3.6902,-3.6904,-3.6909,-3.6949,-3.6955,-3.6894,-3.6894,-3.6894,0,0,-3.6152,-3.6205,-3.6235,-3.6322,-3.6366,-3.642,-3.6426,-3.6482,-3.6523,-3.6555,-3.6624,-3.6663,-3.6727,-3.6798,-3.6832,-3.6831,-3.693,-3.6908,-3.6909,-3.6913,-3.6953,-3.6959,-3.6964,-3.6896,-3.6896,-3.6895,0,0,-3.6188,-3.6233,-3.6284,-3.6329,-3.6395,-3.6432,-3.6444,-3.6516,-3.6542,-3.6613,-3.6639,-3.6688,-3.6786,-3.6831,-3.6867,-3.6922,-3.6938,-3.694,-3.6951,-3.699,-3.6995,-3.6999,-3.7018,-3.7025,-3.6945,-3.6945,-3.6945,0,-3.6185,-3.6266,-3.6309,-3.6364,-3.6402,-3.6434,-3.6487,-3.6528,-3.661,-3.6636,-3.6633,-3.6757,-3.6803,-3.6885,-3.6899,-3.6927,-3.6943,-3.693,-3.6991,-3.6996,-3.7001,-3.7019,-3.7026,-3.6944,-3.6944,-3.6944,-3.6945,0,-3.626,-3.6316,-3.635,-3.6427,-3.647,-3.6523,-3.6574,-3.6612,-3.6636,-3.6673,-3.6745,-3.6802,-3.687,-3.6893,-3.6916,-3.6979,-3.6976,-3.6982,-3.6975,-3.7005,-3.7023,-3.7031,-3.6944,-3.6944,-3.6944,-3.6944,0,0,-3.6278,-3.638,-3.6392,-3.6428,-3.6505,-3.6549,-3.6606,-3.6673,-3.6704,-3.6761,-3.6808,-3.6892,-3.6898,-3.6939,-3.6968,-3.7002,-3.7042,-3.7004,-3.7006,-3.7008,-3.7114,-3.7108,-3.7115,-3.7054,-3.7056,-3.7057,-3.7109,0,-3.6323,-3.6422,-3.6463,-3.6544,-3.6597,-3.663,-3.6679,-3.6732,-3.6769,-3.682,-3.6862,-3.6919,-3.6924,-3.6948,-3.6984,-3.7029,-3.7063,-3.7027,-3.7099,-3.7101,-3.7079,-3.7125,-3.7118,-3.7164,-3.7116,-3.7117,-3.7118,0,-3.6386,-3.6443,-3.6529,-3.66,-3.6624,-3.6667,-3.6732,-3.6781,-3.6842,-3.6867,-3.6913,-3.6941,-3.7002,-3.6993,-3.7078,-3.7052,-3.7085,-3.7112,-3.7115,-3.7121,-3.7109,-3.7131,-3.718,-3.7186,-3.713,-3.7129,-3.7128,0,-3.639,-3.6488,-3.6552,-3.6582,-3.6667,-3.6697,-3.6734,-3.6794,-3.6832,-3.689,-3.6916,-3.698,-3.7015,-3.7065,-3.7109,-3.7099,-3.719,-3.7185,-3.7212,-3.7211,-3.7227,-3.7225,-3.728,-3.7252,-3.7252,-3.7252,-3.7251,0,-3.6434,-3.6485,-3.6555,-3.6594,-3.6653,-3.67,-3.6757,-3.6797,-3.6851,-3.6899,-3.6933,-3.6977,-3.7035,-3.7087,-3.7123,-3.7188,-3.7204,-3.7225,-3.7234,-3.7221,-3.7218,-3.7241,-3.7239,-3.7253,-3.7253,-3.7253,-3.7252,0,-3.6446,-3.6495,-3.6567,-3.6643,-3.6663,-3.6703,-3.6767,-3.6807,-3.6847,-3.6908,-3.6925,-3.6987,-3.7051,-3.7101,-3.7184,-3.7209,-3.7276,-3.7287,-3.7255,-3.7259,-3.7282,-3.7279,-3.7352,-3.7364,-3.7329,-3.7329,-3.7329,0,-3.647,-3.651,-3.659,-3.6624,-3.6661,-3.6716,-3.6755,-3.6804,-3.6844,-3.6918,-3.6949,-3.7015,-3.707,-3.7171,-3.7224,-3.7288,-3.7299,-3.7321,-3.7309,-3.7295,-3.7298,-3.7294,-3.7298,-3.7321,-3.7321,-3.7321,-3.7321,0,-3.6506,-3.6529,-3.6583,-3.6647,-3.6693,-3.6746,-3.6799,-3.6826,-3.6885,-3.6929,-3.6994,-3.7036,-3.7122,-3.7187,-3.7257,-3.7296,-3.7319,-3.7325,-3.7335,-3.7321,-3.73,-3.7311,-3.7257,-3.7323,-3.7322,-3.7322,-3.7322,-3.7322,-3.6524,-3.6562,-3.6623,-3.6684,-3.6729,-3.6779,-3.682,-3.6865,-3.692,-3.6993,-3.7019,-3.7086,-3.7149,-3.7245,-3.7285,-3.7339,-3.734,-3.7354,-3.7357,-3.7359,-3.7357,-3.7293,-3.7352,-3.7352,-3.7352,-3.7352,-3.7352,0,-3.6561,-3.6603,-3.6658,-3.6732,-3.678,-3.6798,-3.6858,-3.6897,-3.6955,-3.7011,-3.7065,-3.7141,-3.7204,-3.7263,-3.733,-3.7362,-3.7374,-3.7378,-3.7375,-3.7384,-3.7353,-3.7337,-3.7367,-3.7367,-3.7367,-3.7367,-3.7367,-3.7367,-3.6586,-3.665,-3.668,-3.6767,-3.6809,-3.6874,-3.6908,-3.6954,-3.6999,-3.7081,-3.7134,-3.7172,-3.723,-3.7302,-3.7362,-3.7378,-3.74,-3.7401,-3.7419,-3.7388,-3.7386,-3.7384,-3.7369,-3.7406,-3.7406,-3.7446,-3.7446,-3.7446]},{"header":{"parameterUnit":"m.s-1","parameterCategory":1,"la1":30.2991,"la2":30.254,"lo1":-89.0895,"lo2":-89.0444,"dy":0.0017,"dx":0.0017,"nx":28,"ny":28,"refTime":"2025-11-25T09:00:00:Z","depth":0,"parameterNumber":3,"parameterNumberName":"V-component_of_WINDS"},"data":[0,0,0,0,0,0,0,0,0,0,0,0,0,0,0,0,0,0,0,0,0,0,0,0,0,0,0,0,0,0,0,0,0,0,0,0,0,0,0,0,0,0,0,0,0,0,0,0,0,0,0,0,0,0,0,0,0,0,4.2772,4.2773,0,4.2836,4.2837,4.2837,4.2813,4.2812,4.281,4.2809,4.2874,4.2877,4.2881,0,0,0,0,0,0,0,0,0,0,0,0,0,4.2632,4.2634,4.2772,4.2773,4.2774,4.2836,4.2837,4.2838,4.2814,4.2812,4.281,4.2808,4.2873,4.2877,4.2881,0,0,0,0,0,0,0,0,0,0,0,0,0,4.2694,4.2635,4.2772,4.2769,4.2769,4.2836,4.2837,4.2838,4.2814,4.2812,4.281,4.2808,4.2872,4.2877,4.2881,4.2954,0,0,4.2896,4.2898,0,0,0,0,0,0,0,0,4.269,4.2699,4.2769,4.2769,4.277,4.2814,4.2811,4.2877,4.2815,4.2797,4.2809,4.2806,4.2856,4.2862,4.2879,4.2957,4.296,4.2896,4.2899,4.2901,4.2902,0,0,0,0,0,0,0,4.2686,4.2696,4.2797,4.277,4.2771,4.2766,4.2772,4.2823,4.2838,4.2798,4.2797,4.2805,4.2856,4.2874,4.288,4.2961,4.2896,4.29,4.2903,4.2905,4.3106,4.3109,0,0,0,0,0,0,4.2681,4.2693,4.2795,4.2799,4.2724,4.277,4.2777,4.2802,4.2838,4.2841,4.2807,4.2803,4.2868,4.2875,4.2882,4.2973,4.2901,4.2905,4.2908,4.3104,4.3107,4.311,0,0,0,0,0,0,4.2678,4.2691,4.2793,4.2746,4.2758,4.2775,4.2803,4.2805,4.2823,4.2844,4.2846,4.2822,4.2866,4.2876,4.2937,4.2974,4.2907,4.2911,4.3101,4.3105,4.3108,4.3152,0,0,0,0,0,0,4.2674,4.269,4.2716,4.2746,4.2761,4.2846,4.2805,4.2808,4.2831,4.2828,4.2859,4.2862,4.2865,4.2931,4.2942,4.298,4.2915,4.3097,4.3102,4.3107,4.3147,4.3156,4.3164,0,0,0,0,0,4.2669,4.2725,4.2718,4.273,4.2795,4.2848,4.2856,4.2858,4.2834,4.2862,4.2876,4.2861,4.2968,4.2937,4.295,4.2989,4.3095,4.3101,4.3107,4.3143,4.3154,4.3164,0,0,0,0,0,0,4.2698,4.2729,4.2721,4.2788,4.2816,4.2844,4.2878,4.287,4.2904,4.29,4.2901,4.2908,4.2972,4.2987,4.2951,4.3064,4.3028,4.3037,4.3052,4.3063,4.3071,4.3067,4.2919,0,0,0,0,0,4.2712,4.2753,4.2777,4.2834,4.2849,4.2862,4.2885,4.2884,4.2913,4.2924,4.2942,4.2971,4.3011,4.3038,4.3076,4.3149,4.3157,4.3183,4.3192,4.3199,4.3206,4.325,4.3262,4.3128,4.3128,4.3128,0,0,4.2742,4.2764,4.2789,4.2841,4.2862,4.2905,4.2871,4.2917,4.2949,4.2931,4.2991,4.3006,4.3038,4.3107,4.3138,4.3121,4.3246,4.3206,4.3212,4.3215,4.3257,4.327,4.3281,4.3132,4.3132,4.3131,0,0,4.2818,4.2838,4.2889,4.2912,4.2945,4.2954,4.2966,4.2997,4.3006,4.3066,4.3055,4.3094,4.3162,4.3187,4.3208,4.3299,4.3287,4.3311,4.3357,4.3399,4.341,4.3419,4.3454,4.3466,4.3318,4.3318,4.3318,0,4.285,4.2914,4.2916,4.2964,4.2989,4.2975,4.3029,4.3051,4.3094,4.3112,4.3093,4.3182,4.3202,4.3278,4.33,4.3317,4.3333,4.3307,4.3408,4.3418,4.3427,4.346,4.3472,4.3321,4.3321,4.3321,4.332,0,4.2954,4.2998,4.3036,4.308,4.3109,4.3159,4.317,4.3199,4.3198,4.3209,4.3273,4.3297,4.3342,4.336,4.3358,4.3437,4.3426,4.3407,4.3372,4.3442,4.3473,4.3486,4.3325,4.3324,4.3323,4.3323,0,0,4.3047,4.3095,4.3109,4.3131,4.3168,4.3203,4.3254,4.3299,4.3325,4.3357,4.3401,4.3462,4.3446,4.3471,4.3472,4.3509,4.3582,4.3486,4.3487,4.3505,4.3675,4.3689,4.3704,4.3575,4.3578,4.358,4.3673,0,4.3128,4.3217,4.3223,4.3304,4.3348,4.3338,4.3383,4.3412,4.3425,4.3464,4.3479,4.3523,4.3497,4.3513,4.3549,4.3566,4.3617,4.3559,4.3618,4.362,4.3612,4.372,4.3734,4.3821,4.3685,4.3687,4.3688,0,4.3233,4.327,4.3357,4.3392,4.341,4.345,4.3494,4.3531,4.3565,4.3572,4.3602,4.3598,4.3653,4.3616,4.3693,4.3654,4.3679,4.3691,4.3694,4.3701,4.3659,4.373,4.3848,4.3862,4.3707,4.3705,4.3704,0,4.3296,4.3367,4.3429,4.3448,4.3489,4.3519,4.3538,4.3569,4.3597,4.3635,4.3654,4.3697,4.3722,4.3756,4.3766,4.3738,4.3844,4.3807,4.3853,4.3853,4.3876,4.3874,4.4001,4.389,4.3889,4.3889,4.3889,0,4.3386,4.344,4.3458,4.3496,4.3558,4.3564,4.3625,4.3642,4.3671,4.3714,4.3708,4.3748,4.3758,4.3801,4.3809,4.3873,4.3883,4.3892,4.3894,4.3893,4.3892,4.391,4.3905,4.3893,4.3892,4.3891,4.3891,0,4.3466,4.348,4.3547,4.3583,4.3593,4.3637,4.3668,4.3706,4.3719,4.3774,4.3787,4.3808,4.3859,4.3872,4.3932,4.3938,4.4014,4.4009,4.4003,4.4003,4.4049,4.4046,4.4192,4.4213,4.4087,4.4088,4.4089,0,4.3523,4.3564,4.3605,4.3634,4.3655,4.37,4.3729,4.3738,4.3769,4.3813,4.3847,4.3897,4.3937,4.4019,4.404,4.4087,4.4085,4.4133,4.4091,4.4091,4.4088,4.4086,4.4092,4.4141,4.4142,4.4143,4.4144,0,4.3623,4.3629,4.3671,4.3718,4.3753,4.3789,4.3824,4.3848,4.3862,4.3898,4.395,4.3982,4.4045,4.4095,4.4144,4.4164,4.4158,4.4157,4.4171,4.4171,4.4167,4.4173,4.4026,4.4154,4.4153,4.4152,4.4152,4.4151,4.3695,4.3733,4.3769,4.3817,4.3845,4.3879,4.3917,4.3937,4.398,4.4033,4.4036,4.4093,4.413,4.4194,4.4218,4.4264,4.425,4.4268,4.4274,4.4279,4.4284,4.4159,4.4272,4.4272,4.4272,4.4272,4.4272,0,4.3797,4.3821,4.3865,4.3915,4.3954,4.3945,4.3985,4.4018,4.4069,4.4103,4.4145,4.4207,4.4257,4.4284,4.4334,4.4366,4.4365,4.4379,4.4378,4.4383,4.4292,4.4277,4.438,4.438,4.438,4.438,4.438,4.438,4.3855,4.392,4.3931,4.4011,4.4034,4.4091,4.4115,4.4147,4.4175,4.4245,4.4287,4.4304,4.4337,4.439,4.4437,4.4444,4.4463,4.448,4.4486,4.44,4.4389,4.4379,4.4364,4.4484,4.4484,4.4573,4.4574,4.4574]}]]